This demonstration page uses our WeatherBlox Daily Observations layout. Learn more.

Left ArrowRight Arrow

Hourly Observations for February 3, 2017

Temp ( °F °C ) Dew Point ( °F °C ) Humidity (%) Winds ( mph kmh ) Pressure ( in mb ) Visibility ( mi km ) Precip ( " mm )
12:53 am 00:53 Clear 1 -17.2 -2 -18.9 87 87 ENE 6 9 30.40 1030 10 16 0.00 0.00
1:53 am 01:53 Clear -1 -18.3 -5 -20.6 82 82 SSE 3 6 30.38 1029 10 16 0.00 0.00
2:53 am 02:53 Clear 0 -17.8 -5 -20.6 79 79 ENE 6 9 30.34 1027 10 16 0.00 0.00
3:53 am 03:53 Clear -1 -18.3 -6 -21.1 79 79 E 3 6 30.30 1026 10 16 0.00 0.00
4:53 am 04:53 Clear 0 -17.8 -5 -20.6 79 79 E 7 11 30.26 1025 10 16 0.00 0.00
5:53 am 05:53 Clear 0 -17.8 -4 -20 83 83 E 5 7 30.23 1024 10 16 0.00 0.00
6:53 am 06:53 Clear -3 -19.4 -7 -21.7 82 82 S 3 6 30.21 1023 10 16 0.00 0.00
7:53 am 07:53 Sunny -4 -20 -8 -22.2 83 83 WNW 3 6 30.19 1022 10 16 0.00 0.00
8:53 am 08:53 Sunny -1 -18.3 -5 -20.6 82 82 Calm 30.16 1021 10 16 0.00 0.00
9:53 am 09:53 Sunny 5 -15 1 -17.2 83 83 Calm 30.12 1020 10 16 0.00 0.00
10:53 am 10:53 Sunny 8 -13.3 2 -16.7 76 76 E 6 9 30.09 1019 10 16 0.00 0.00
11:53 am 11:53 Mostly Cloudy 12 -11.1 5 -15 73 73 Calm 30.06 1018 10 16 0.00 0.00
12:53 pm 12:53 Mostly Cloudy 15 -9.4 6 -14.4 67 67 ENE 6 9 29.99 1016 10 16 0.00 0.00
1:53 pm 13:53 Mostly Cloudy 18 -7.8 7 -13.9 62 62 ENE 7 11 29.95 1014 10 16 0.00 0.00
2:53 pm 14:53 Sunny 19 -7.2 8 -13.3 62 62 ENE 9 15 29.92 1013 10 16 0.00 0.00
3:53 pm 15:53 Mostly Cloudy 20 -6.7 10 -12.2 65 65 ENE 10 17 29.90 1013 10 16 0.00 0.00
4:53 pm 16:53 Cloudy 21 -6.1 9 -12.8 59 59 NE 8 13 29.89 1012 10 16 0.00 0.00
5:53 pm 17:53 Cloudy 21 -6.1 10 -12.2 62 62 NE 6 9 29.88 1012 10 16 0.00 0.00
6:39 pm 18:39 Cloudy with Light Snow 20 -6.7 12 -11.1 71 71 N 8 13 29.88 1012 4 6 0.00 0.03
6:53 pm 18:53 Cloudy with Light Snow 20 -6.7 14 -10 78 78 N 8 13 29.90 1012 3 4 0.01 0.25
7:06 pm 19:06 Cloudy with Light Snow 19 -7 14 -10 79 79 N 8 13 29.88 1012 2 3 0.00 0.00
7:21 pm 19:21 Cloudy with Light Snow 19 -7.2 15 -9.4 84 84 N 7 11 29.88 1012 1 2 0.01 0.25
7:29 pm 19:29 Cloudy with Light Snow 19 -7.2 15 -9.4 84 84 NNW 8 13 29.94 1014 2 2 0.01 0.25
7:44 pm 19:44 Cloudy with Light Snow 19 -7 16 -9 86 86 N 9 15 29.94 1014 1 2 0.00 0.00
7:53 pm 19:53 Mostly Cloudy with Light Snow 19 -7.2 16 -8.9 88 88 N 10 17 29.91 1013 1 2 0.02 0.51
8:05 pm 20:05 Mostly Cloudy with Light Snow 18 -7.8 16 -8.9 92 92 N 10 17 29.94 1014 1 1 0.01 0.25
8:17 pm 20:17 Mostly Cloudy with Light Snow 18 -7.8 16 -8.9 92 92 N 10 17 29.94 1014 1 2 0.02 0.51
8:37 pm 20:37 Mostly Cloudy with Light Snow 18 -7.8 15 -9.4 88 88 N 10 17 29.94 1014 1 1 0.04 1.02
8:51 pm 20:51 Mostly Cloudy with Light Snow 18 -8 16 -9 93 93 N 9 15 29.94 1014 1 2 0.05 1.27
8:53 pm 20:53 Mostly Cloudy with Light Snow 18 -7.8 15 -9.4 88 88 NNW 9 15 29.93 1013 1 2 0.05 1.27
9:00 pm 21:00 Mostly Cloudy with Light Snow 18 -8 16 -9 93 93 NNW 12 19 29.94 1014 1 1 0.00 0.00
9:11 pm 21:11 Mostly Cloudy with Light Snow 17 -8.3 14 -10 88 88 NNW 8 13 29.94 1014 1 2 0.02 0.51
9:20 pm 21:20 Mostly Cloudy with Light Snow 18 -8 14 -10 86 86 NW 10 17 29.97 1015 1 1 0.00 0.00
9:31 pm 21:31 Mostly Cloudy with Light Snow 17 -8.3 14 -10 88 88 NW 12 19 29.97 1015 1 1 0.04 1.02
9:53 pm 21:53 Mostly Cloudy with Light Snow 16 -8.9 14 -10 92 92 NNW 10 17 29.94 1014 1 1 0.06 1.52
9:59 pm 21:59 Cloudy with Light Snow 16 -8.9 14 -10 92 92 NW 9 15 29.97 1015 2 2 0.00 0.03
10:04 pm 22:04 Cloudy with Light Snow 16 -9 14 -10 93 93 NW 8 13 29.97 1015 3 5 0.00 0.00
10:53 pm 22:53 Cloudy with Light Snow 16 -8.9 13 -10.6 88 88 NW 8 13 29.95 1014 4 6 0.00 0.03
11:53 pm 23:53 Cloudy 16 -8.9 13 -10.6 88 88 WNW 6 9 29.95 1014 10 16 0.00 0.03

Powered by AerisWeather